Tracking 19149 objects as of 19-Apr-2018
HD Live streaming from Space Station
objects crossing your sky now

ARIANE 5 R/B

Track ARIANE 5 R/B now!


NORAD ID: 33156
Int'l Code: 2008-034D
Perigee: 306.2 km
Apogee: 34,190.3 km
Inclination: 2.2 °
Period: 602.1 minutes
Semi major axis: 23619 km
RCS: 21.1591 m2 (large)
Launch date: July 7, 2008
Source: France (FR)
Launch site: FRENCH GUIANA (FRGUI)

Note: This is a ROCKET BODY
aabbcc
Your satellite tracking list
Your tracking list is empty




NASA's NSSDC Master Catalog

Two Line Element Set (TLE):
1 33156U 08034D   18108.55402462 +.00000058 +00000-0 +70132-4 0  9999
2 33156 002.1528 005.6736 7172976 320.5467 004.9834 02.39168228083405
Source of the keplerian elements: AFSPC